Date String (YYYY-MM-DD hh:mm:ss) UTC,Instrument flags,Ambient pressure (hPa),Sample flow (lpm),Bypass flow (lpm),Sample temperature (°C),Ambient temperature (°C),ASC tube jacket temperature (°C),LED temperature (°C),Box temperature (°C),Sample RH (%),Span deviation,Mass concentration (μg/m³),Mass concentration (μg/m³),Mass concentration (μg/m³)
DateTimeUTC,F1_M11,P_M11,Q1_M11,Q2_M11,T1_M11,T2_M11,T3_M11,T4_M11,T5_M11,U1_M11,ZSPAN_M11,X2_M11,X0_M11,X1_M11
2022-11-26 17:00:00,,0821.0,5.01,0.00,24.2,23.3,00.0,33.0,26.1,12.9,0000.0,0000.70,0001.37,0000.46
2022-11-26 17:01:00,,0821.0,5.00,0.00,24.2,23.4,00.0,33.0,26.2,14.1,0000.0,0000.69,0001.32,0000.45
2022-11-26 17:02:00,,0821.0,5.00,0.00,24.3,23.4,00.0,33.0,26.2,14.6,0000.0,0000.67,0001.23,0000.46
2022-11-26 17:03:00,,0821.0,4.99,0.00,24.3,23.4,00.0,33.0,26.2,14.5,0000.0,0000.68,0001.32,0000.48
2022-11-26 17:04:00,,0821.1,5.00,0.00,24.3,23.4,00.0,33.0,26.2,14.5,0000.0,0000.69,0001.34,0000.49
2022-11-26 17:05:00,,0821.0,5.01,0.00,24.3,23.4,00.0,33.1,26.3,14.5,0000.0,0000.72,0001.44,0000.51
2022-11-26 17:06:00,,0821.0,5.01,0.00,24.3,23.4,00.0,33.1,26.3,14.7,0000.0,0000.75,0001.52,0000.52
2022-11-26 17:07:00,,0821.1,5.01,0.00,24.4,23.4,00.0,33.1,26.3,13.9,0000.0,0000.77,0001.70,0000.53
2022-11-26 17:08:00,,0821.1,5.00,0.00,24.4,23.4,00.0,33.1,26.3,13.5,0000.0,0000.76,0003.40,0000.52
2022-11-26 17:09:00,,0821.1,5.00,0.00,24.4,23.4,00.0,33.1,26.3,14.0,0000.0,0000.79,0003.78,0000.54
2022-11-26 17:10:00,,0821.1,4.99,0.00,24.4,23.5,00.0,33.2,26.4,13.6,0000.0,0000.81,0003.74,0000.55
2022-11-26 17:11:00,,0821.1,5.00,0.00,24.4,23.5,00.0,33.2,26.4,13.6,0000.0,0000.79,0003.70,0000.57
2022-11-26 17:12:00,,0821.1,4.99,0.00,24.5,23.5,00.0,33.2,26.4,15.0,0000.0,0000.84,0003.87,0000.59
2022-11-26 17:13:00,,0821.2,5.00,0.00,24.5,23.5,00.0,33.2,26.4,15.8,0000.0,0000.91,0003.97,0000.63
2022-11-26 17:14:00,,0821.1,5.00,0.00,24.5,23.5,00.0,33.2,26.4,15.1,0000.0,0000.91,0003.84,0000.65
2022-11-26 17:15:00,,0821.1,5.00,0.00,24.5,23.5,00.0,33.2,26.4,15.3,0000.0,0000.95,0003.89,0000.68
2022-11-26 17:16:00,,0821.2,5.00,0.00,24.5,23.5,00.0,33.3,26.4,16.0,0000.0,0001.03,0004.05,0000.73
2022-11-26 17:17:00,,0821.2,5.00,0.00,24.5,23.6,00.0,33.3,26.4,15.6,0000.0,0001.10,0004.15,0000.78
2022-11-26 17:18:00,,0821.1,5.01,0.00,24.5,23.6,00.0,33.3,26.5,15.7,0000.0,0001.19,0004.14,0000.83
2022-11-26 17:19:00,,0821.2,5.00,0.00,24.6,23.6,00.0,33.3,26.5,15.1,0000.0,0001.26,0002.63,0000.87
2022-11-26 17:20:00,,0821.2,4.99,0.00,24.6,23.6,00.0,33.3,26.5,14.7,0000.0,0001.27,0002.28,0000.89
2022-11-26 17:21:00,,0821.2,4.99,0.00,24.6,23.6,00.0,33.3,26.5,14.1,0000.0,0001.30,0002.32,0000.92
2022-11-26 17:22:00,,0821.2,5.00,0.00,24.6,23.6,00.0,33.4,26.5,14.1,0000.0,0001.34,0002.54,0000.94
2022-11-26 17:23:00,,0821.2,5.01,0.00,24.6,23.6,00.0,33.4,26.5,13.7,0000.0,0001.35,0002.50,0000.95
2022-11-26 17:24:00,,0821.2,5.01,0.00,24.6,23.7,00.0,33.4,26.5,13.8,0000.0,0001.33,0002.44,0000.96
2022-11-26 17:25:00,,0821.2,4.99,0.00,24.6,23.7,00.0,33.4,26.6,14.1,0000.0,0001.35,0002.47,0000.97
2022-11-26 17:26:00,,0821.2,4.99,0.00,24.7,23.7,00.0,33.4,26.6,13.7,0000.0,0001.37,0002.51,0000.98
2022-11-26 17:27:00,,0821.2,5.02,0.00,24.7,23.7,00.0,33.4,26.6,13.5,0000.0,0001.36,0002.43,0000.99
2022-11-26 17:28:00,,0821.2,4.98,0.00,24.7,23.7,00.0,33.5,26.6,13.4,0000.0,0001.37,0002.42,0000.99
2022-11-26 17:29:00,,0821.2,5.01,0.00,24.7,23.7,00.0,33.5,26.6,13.4,0000.0,0001.36,0002.33,0001.00
2022-11-26 17:30:00,,0821.1,4.99,0.00,24.7,23.8,00.0,33.5,26.6,13.4,0000.0,0001.35,0002.37,0001.00
2022-11-26 17:31:00,,0821.2,5.00,0.00,24.7,23.8,00.0,33.5,26.7,13.1,0000.0,0001.37,0002.51,0001.00
2022-11-26 17:32:00,,0821.1,5.00,0.00,24.8,23.8,00.0,33.5,26.7,13.4,0000.0,0001.39,0002.67,0001.00
2022-11-26 17:33:00,,0821.1,5.00,0.00,24.8,23.9,00.0,33.6,26.7,13.3,0000.0,0001.42,0002.60,0001.02
2022-11-26 17:34:00,,0821.1,5.00,0.00,24.8,23.9,00.0,33.6,26.7,13.3,0000.0,0001.42,0002.50,0001.05
2022-11-26 17:35:00,,0821.2,5.00,0.00,24.8,23.9,00.0,33.6,26.7,12.6,0000.0,0001.43,0003.25,0001.06
2022-11-26 17:36:00,,0821.2,5.01,0.00,24.9,23.9,00.0,33.6,26.8,12.5,0000.0,0001.41,0003.93,0001.05
2022-11-26 17:37:00,,0821.2,5.00,0.00,24.9,24.0,00.0,33.6,26.8,12.3,0000.0,0001.39,0003.91,0001.04
2022-11-26 17:38:00,,0821.2,4.99,0.00,24.9,24.0,00.0,33.7,26.8,12.3,0000.0,0001.38,0004.01,0001.02
2022-11-26 17:39:00,,0821.1,5.00,0.00,24.9,24.0,00.0,33.7,26.8,12.5,0000.0,0001.38,0004.26,0001.01
2022-11-26 17:40:00,,0821.2,5.01,0.00,25.0,24.0,00.0,33.7,26.9,12.3,0000.0,0001.34,0004.33,0000.99
2022-11-26 17:41:00,,0821.1,5.01,0.00,25.0,24.0,00.0,33.7,26.9,12.4,0000.0,0001.33,0004.29,0000.98
2022-11-26 17:42:00,,0821.1,5.00,0.00,25.0,24.1,00.0,33.7,26.9,11.8,0000.0,0001.34,0004.43,0000.97
2022-11-26 17:43:00,,0821.2,4.99,0.00,25.0,24.1,00.0,33.8,26.9,11.9,0000.0,0001.32,0005.08,0000.95
2022-11-26 17:44:00,,0821.1,5.00,0.00,25.0,24.1,00.0,33.8,26.9,12.6,0000.0,0001.32,0005.09,0000.94
2022-11-26 17:45:00,,0821.1,5.00,0.00,25.1,24.1,00.0,33.8,27.0,13.0,0000.0,0001.31,0005.11,0000.92
2022-11-26 17:46:00,,0821.1,5.00,0.00,25.1,24.2,00.0,33.8,27.0,12.4,0000.0,0001.30,0004.62,0000.91
2022-11-26 17:47:00,,0821.1,5.01,0.00,25.1,24.2,00.0,33.8,27.0,12.0,0000.0,0001.27,0003.66,0000.91
2022-11-26 17:48:00,,0821.0,5.00,0.00,25.1,24.2,00.0,33.9,27.1,11.8,0000.0,0001.28,0003.68,0000.90
2022-11-26 17:49:00,,0821.0,5.00,0.00,25.2,24.3,00.0,33.9,27.1,12.1,0000.0,0001.27,0003.58,0000.90
2022-11-26 17:50:00,,0821.1,4.98,0.00,25.2,24.3,00.0,33.9,27.1,11.4,0000.0,0001.23,0003.23,0000.87
2022-11-26 17:51:00,,0821.1,5.00,0.00,25.2,24.4,00.0,33.9,27.1,11.8,0000.0,0001.18,0004.04,0000.85
2022-11-26 17:52:00,,0821.1,5.00,0.00,25.2,24.4,00.0,33.9,27.2,11.6,0000.0,0001.17,0004.03,0000.83
2022-11-26 17:53:00,,0821.1,5.01,0.00,25.3,24.4,00.0,34.0,27.2,10.9,0000.0,0001.15,0003.77,0000.81
2022-11-26 17:54:00,,0821.2,5.01,0.00,25.3,24.4,00.0,34.0,27.2,11.4,0000.0,0001.10,0002.94,0000.79
2022-11-26 17:55:00,,0821.1,4.99,0.00,25.3,24.4,00.0,34.0,27.3,11.2,0000.0,0001.04,0003.01,0000.76
2022-11-26 17:56:00,,0821.1,5.00,0.00,25.3,24.4,00.0,34.1,27.3,11.4,0000.0,0001.01,0003.12,0000.73
2022-11-26 17:57:00,,0821.1,4.99,0.00,25.3,24.4,00.0,34.1,27.3,11.5,0000.0,0001.01,0003.04,0000.72
2022-11-26 17:58:00,,0821.1,5.00,0.00,25.4,24.4,00.0,34.1,27.3,11.8,0000.0,0001.06,0003.15,0000.73
2022-11-26 17:59:00,,0821.2,5.00,0.00,25.4,24.4,00.0,34.1,27.3,12.1,0000.0,0001.12,0003.24,0000.76
